Location: Risskov
(56.1972°N, 10.2480°E)
Time: 23:44:50
(UTC+00:00)

Cosmos 1151 Rocket - Pass Details

Date: 05 July 2020
Orbit: 591 x 617 km, 82.5° (Epoch: 14 August)

Event Time Altitude Azimuth Distance (km) Brightness Sun altitude
Rises 21:52:44 0° 351° (N) 2,891 8.5 -8.8°
Reaches altitude 10° 21:55:07 10° 359° (N) 1,977 7.0 -8.9°
Maximum altitude 21:59:13 38° 69° (ENE) 937 4.0 -9.1°
Enters shadow 22:03:13 10° 138° (SE) 1,936 5.0 -9.3°
